Satellite-Ground Cal/Val Site Overpasses Predictions

Prediction of Satellite NPP Overpassing Cal/Val Site: Antarctic Dome C

Ground Cal/Val Site Location: Latitude: -75.10, Longitude: 123.35; Satellite-Ground Site NADIR distance within 100 km.

Table of predicted overpasses for the next 14.0 days since TLE Epoch: 11/26/2022
Interval Starting Time Ending Time Minimum Distance Time Minimum Distance (km)
1 11/27/2022 14:55:34 11/27/2022 14:56:03 11/27/2022 14:55:49 21.68
2 11/28/2022 14:36:51 11/28/2022 14:37:06 11/28/2022 14:36:58 85.41
3 11/29/2022 07:38:23 11/29/2022 07:38:50 11/29/2022 07:38:37 31.85
4 11/30/2022 07:19:36 11/30/2022 07:19:54 11/30/2022 07:19:45 78.59
5 12/02/2022 15:01:48 12/02/2022 15:02:12 12/02/2022 15:02:00 57.88
6 12/03/2022 14:42:58 12/03/2022 14:43:23 12/03/2022 14:43:10 51.21
7 12/04/2022 07:44:37 12/04/2022 07:44:58 12/04/2022 07:44:47 66.37
8 12/05/2022 07:25:44 12/05/2022 07:26:11 12/05/2022 07:25:58 41.94
9 12/07/2022 15:08:08 12/07/2022 15:08:17 12/07/2022 15:08:12 94.85
